Date String (YYYY-MM-DD hh:mm:ss) UTC,Instrument flags,Ambient pressure (hPa),Sample flow (lpm),Bypass flow (lpm),Sample temperature (°C),Ambient temperature (°C),ASC tube jacket temperature (°C),LED temperature (°C),Box temperature (°C),Sample RH (%),Span deviation,Mass concentration (μg/m³),Mass concentration (μg/m³),Mass concentration (μg/m³)
DateTimeUTC,F1_M11,P_M11,Q1_M11,Q2_M11,T1_M11,T2_M11,T3_M11,T4_M11,T5_M11,U1_M11,ZSPAN_M11,X0_M11,X2_M11,X1_M11
2022-02-12 21:00:00,,0829.8,5.00,0.00,24.9,24.2,00.0,33.7,26.7,08.4,0000.0,0003.77,0001.89,0001.58
2022-02-12 21:01:00,,0829.8,4.99,0.00,24.9,24.2,00.0,33.7,26.8,08.3,0000.0,0002.85,0001.93,0001.63
2022-02-12 21:02:00,,0829.8,5.00,0.00,24.9,24.2,00.0,33.7,26.7,08.1,0000.0,0002.85,0001.95,0001.64
2022-02-12 21:03:00,,0829.8,5.02,0.00,24.9,24.2,00.0,33.8,26.8,07.8,0000.0,0002.66,0001.88,0001.62
2022-02-12 21:04:00,,0829.9,5.00,0.00,24.9,24.2,00.0,33.8,26.8,08.3,0000.0,0002.70,0001.87,0001.60
2022-02-12 21:05:00,,0829.9,4.99,0.00,24.9,24.2,00.0,33.8,26.8,08.7,0000.0,0002.60,0001.88,0001.61
2022-02-12 21:06:00,,0829.9,4.99,0.00,24.9,24.2,00.0,33.8,26.8,08.7,0000.0,0002.57,0001.88,0001.62
2022-02-12 21:07:00,,0829.8,4.99,0.00,25.0,24.2,00.0,33.8,26.8,08.5,0000.0,0002.54,0001.87,0001.64
2022-02-12 21:08:00,,0829.8,4.99,0.00,25.0,24.3,00.0,33.8,26.9,07.9,0000.0,0002.56,0001.87,0001.64
2022-02-12 21:09:00,,0829.8,5.00,0.00,25.0,24.3,00.0,33.8,26.9,08.0,0000.0,0002.54,0001.88,0001.64
2022-02-12 21:10:00,,0829.8,5.00,0.00,25.0,24.3,00.0,33.8,26.9,07.6,0000.0,0002.81,0001.89,0001.64
2022-02-12 21:11:00,,0829.8,5.02,0.00,25.0,24.3,00.0,33.9,26.9,08.3,0000.0,0004.37,0001.91,0001.65
2022-02-12 21:12:00,,0829.8,5.00,0.00,25.0,24.3,00.0,33.9,26.9,08.1,0000.0,0004.78,0001.92,0001.68
2022-02-12 21:13:00,,0829.8,4.99,0.00,25.0,24.3,00.0,33.9,26.9,08.2,0000.0,0004.76,0001.94,0001.71
2022-02-12 21:14:00,,0829.8,5.01,0.00,25.1,24.3,00.0,33.9,26.9,08.1,0000.0,0005.01,0002.02,0001.75
2022-02-12 21:15:00,,0829.8,5.00,0.00,25.1,24.3,00.0,33.9,26.9,07.5,0000.0,0005.10,0002.07,0001.78
2022-02-12 21:16:00,,0829.8,4.99,0.00,25.1,24.4,00.0,33.9,26.9,07.3,0000.0,0005.16,0002.05,0001.77
2022-02-12 21:17:00,,0829.8,5.00,0.00,25.1,24.4,00.0,33.9,27.0,07.5,0000.0,0005.37,0002.01,0001.72
2022-02-12 21:18:00,,0829.8,5.01,0.00,25.1,24.4,00.0,33.9,27.0,07.9,0000.0,0006.55,0001.98,0001.68
2022-02-12 21:19:00,,0829.9,4.99,0.00,25.1,24.4,00.0,34.0,27.0,08.2,0000.0,0006.58,0001.99,0001.67
2022-02-12 21:20:00,,0829.8,5.00,0.00,25.1,24.4,00.0,34.0,27.0,08.2,0000.0,0006.60,0002.00,0001.67
2022-02-12 21:21:00,,0829.8,5.00,0.00,25.1,24.4,00.0,34.0,27.1,08.1,0000.0,0006.50,0002.02,0001.68
2022-02-12 21:22:00,,0829.8,5.01,0.00,25.2,24.4,00.0,34.0,27.0,07.9,0000.0,0005.36,0002.07,0001.68
2022-02-12 21:23:00,,0829.8,4.99,0.00,25.2,24.4,00.0,34.0,27.0,08.2,0000.0,0005.26,0002.11,0001.70
2022-02-12 21:24:00,,0829.9,4.99,0.00,25.2,24.4,00.0,34.0,27.1,08.2,0000.0,0006.10,0002.14,0001.71
2022-02-12 21:25:00,,0829.9,5.01,0.00,25.2,24.5,00.0,34.0,27.1,08.4,0000.0,0006.17,0002.14,0001.72
2022-02-12 21:26:00,,0829.9,5.01,0.00,25.2,24.5,00.0,34.0,27.1,08.5,0000.0,0006.07,0002.14,0001.75
2022-02-12 21:27:00,,0829.8,5.00,0.00,25.2,24.5,00.0,34.0,27.1,08.2,0000.0,0006.06,0002.20,0001.78
2022-02-12 21:28:00,,0829.8,5.00,0.00,25.2,24.5,00.0,34.0,27.1,08.1,0000.0,0005.90,0002.24,0001.82
2022-02-12 21:29:00,,0829.8,4.99,0.00,25.2,24.5,00.0,34.1,27.1,06.5,0000.0,0004.67,0002.21,0001.81
2022-02-12 21:30:00,,0829.8,5.02,0.00,25.2,24.5,00.0,34.1,27.1,06.1,0000.0,0004.67,0002.18,0001.77
2022-02-12 21:31:00,,0829.8,5.00,0.00,25.2,24.5,00.0,34.1,27.1,07.5,0000.0,0004.67,0002.18,0001.75
2022-02-12 21:32:00,,0829.9,4.99,0.00,25.3,24.5,00.0,34.1,27.2,08.5,0000.0,0004.66,0002.18,0001.77
2022-02-12 21:33:00,,0829.9,5.00,0.00,25.3,24.5,00.0,34.1,27.2,08.7,0000.0,0004.58,0002.18,0001.80
2022-02-12 21:34:00,,0830.0,5.00,0.00,25.3,24.5,00.0,34.1,27.2,08.5,0000.0,0004.05,0002.20,0001.81
2022-02-12 21:35:00,,0830.0,5.01,0.00,25.3,24.5,00.0,34.1,27.1,06.6,0000.0,0003.28,0002.19,0001.77
2022-02-12 21:36:00,,0830.0,4.99,0.00,25.3,24.5,00.0,34.1,27.2,06.2,0000.0,0003.07,0002.12,0001.72
2022-02-12 21:37:00,,0830.0,5.00,0.00,25.3,24.5,00.0,34.1,27.2,07.3,0000.0,0003.11,0002.12,0001.68
2022-02-12 21:38:00,,0830.0,5.01,0.00,25.3,24.5,00.0,34.1,27.2,07.9,0000.0,0003.07,0002.10,0001.66
2022-02-12 21:39:00,,0830.0,4.99,0.00,25.3,24.5,00.0,34.1,27.2,07.9,0000.0,0003.05,0002.11,0001.66
2022-02-12 21:40:00,,0830.0,5.00,0.00,25.3,24.6,00.0,34.2,27.2,08.0,0000.0,0003.13,0002.17,0001.71
2022-02-12 21:41:00,,0830.0,5.01,0.00,25.3,24.6,00.0,34.2,27.2,08.0,0000.0,0003.20,0002.20,0001.77
2022-02-12 21:42:00,,0830.1,4.99,0.00,25.3,24.6,00.0,34.2,27.2,08.1,0000.0,0003.25,0002.21,0001.81
2022-02-12 21:43:00,,0830.0,5.00,0.00,25.3,24.6,00.0,34.2,27.2,08.1,0000.0,0003.29,0002.23,0001.82
2022-02-12 21:44:00,,0830.0,4.99,0.00,25.3,24.6,00.0,34.2,27.2,08.3,0000.0,0003.26,0002.23,0001.81
2022-02-12 21:45:00,,0830.0,5.01,0.00,25.4,24.6,00.0,34.2,27.2,08.1,0000.0,0003.55,0002.23,0001.83
2022-02-12 21:46:00,,0830.0,5.00,0.00,25.4,24.6,00.0,34.2,27.2,08.4,0000.0,0004.43,0002.29,0001.90
2022-02-12 21:47:00,,0830.0,5.00,0.00,25.4,24.6,00.0,34.2,27.2,08.7,0000.0,0004.57,0002.40,0002.00
2022-02-12 21:48:00,,0830.0,4.99,0.00,25.3,24.6,00.0,34.2,27.2,08.7,0000.0,0004.68,0002.49,0002.09
2022-02-12 21:49:00,,0830.0,5.01,0.00,25.4,24.6,00.0,34.2,27.3,07.9,0000.0,0004.61,0002.49,0002.13
2022-02-12 21:50:00,,0830.0,5.00,0.00,25.4,24.6,00.0,34.2,27.2,07.5,0000.0,0004.67,0002.51,0002.16
2022-02-12 21:51:00,,0830.0,4.99,0.00,25.4,24.6,00.0,34.2,27.2,08.1,0000.0,0005.00,0002.55,0002.20
2022-02-12 21:52:00,,0830.0,5.00,0.00,25.4,24.6,00.0,34.2,27.2,08.6,0000.0,0005.63,0002.65,0002.26
2022-02-12 21:53:00,,0830.0,5.01,0.00,25.4,24.6,00.0,34.2,27.2,08.5,0000.0,0005.63,0002.72,0002.30
2022-02-12 21:54:00,,0830.1,4.99,0.00,25.4,24.6,00.0,34.2,27.2,08.0,0000.0,0006.69,0002.77,0002.33
2022-02-12 21:55:00,,0830.0,5.00,0.00,25.4,24.6,00.0,34.3,27.3,07.5,0000.0,0006.98,0002.75,0002.33
2022-02-12 21:56:00,,0830.1,5.01,0.00,25.4,24.6,00.0,34.3,27.3,06.7,0000.0,0007.05,0002.75,0002.30
2022-02-12 21:57:00,,0830.0,4.99,0.00,25.4,24.6,00.0,34.3,27.3,06.3,0000.0,0005.95,0002.70,0002.24
2022-02-12 21:58:00,,0830.1,5.01,0.00,25.4,24.6,00.0,34.3,27.3,06.0,0000.0,0006.00,0002.66,0002.17
2022-02-12 21:59:00,,0830.1,5.01,0.00,25.4,24.6,00.0,34.3,27.3,06.1,0000.0,0006.08,0002.67,0002.14
